| time (UTC) | temp F | wind direction | speed MPH | gust MPH | rain 1hr in | rain 24hr in | rain mn in | humidity % | barometer mb |
| 20260831231516 | 99 | 103 | 3.0 | 8.0 | 0.00 | 0.00 | 0.00 | 32 | 990.7 |
| 20260831230016 | 99 | 174 | 2.0 | 8.0 | 0.00 | 0.00 | 0.00 | 32 | 990.8 |
| 20260831224510 | 99 | 42 | 3.0 | 8.0 | 0.00 | 0.00 | 0.00 | 31 | 990.8 |
| 20260831223009 | 99 | 110 | 2.0 | 8.0 | 0.00 | 0.00 | 0.00 | 33 | 991.0 |
| 20260831221506 | 100 | 84 | 1.0 | 6.0 | 0.00 | 0.00 | 0.00 | 33 | 991.0 |
| 20260831220005 | 99 | 127 | 3.0 | 8.0 | 0.00 | 0.00 | 0.00 | 33 | 991.2 |
| 20260831214502 | 99 | 133 | 3.0 | 10.0 | 0.00 | 0.00 | 0.00 | 32 | 991.4 |
| 20260831213004 | 101 | 119 | 4.0 | 11.0 | 0.00 | 0.00 | 0.00 | 30 | 991.3 |
| 20260831211603 | 100 | 113 | 3.0 | 13.0 | 0.00 | 0.00 | 0.00 | 32 | 991.5 |
| 20260831210055 | 99 | 91 | 3.0 | 10.0 | 0.00 | 0.00 | 0.00 | 32 | 991.6 |
| 20260831204554 | 100 | 131 | 2.0 | 9.0 | 0.00 | 0.00 | 0.00 | 33 | 991.9 |
| 20260831203100 | 100 | 98 | 4.0 | 10.0 | 0.00 | 0.00 | 0.00 | 32 | 992.1 |
| 20260831201553 | 100 | 165 | 3.0 | 8.0 | 0.00 | 0.00 | 0.00 | 32 | 992.2 |
| 20260831200050 | 99 | 114 | 3.0 | 8.0 | 0.00 | 0.00 | 0.00 | 34 | 992.5 |
| 20260831194554 | 98 | 359 | 2.0 | 7.0 | 0.00 | 0.00 | 0.00 | 34 | 992.7 |
| 20260831193043 | 98 | 93 | 1.0 | 7.0 | 0.00 | 0.00 | 0.00 | 36 | 992.9 |
| 20260831191541 | 99 | 135 | 1.0 | 9.0 | 0.00 | 0.00 | 0.00 | 34 | 993.0 |
| 20260831190052 | 98 | 127 | 1.0 | 12.0 | 0.00 | 0.00 | 0.00 | 36 | 993.1 |
| 20260831184535 | 97 | 201 | 5.0 | 10.0 | 0.00 | 0.00 | 0.00 | 36 | 993.3 |
| 20260831183032 | 98 | 226 | 4.0 | 13.0 | 0.00 | 0.00 | 0.00 | 37 | 993.5 |
| 20260831181530 | 97 | 89 | 4.0 | 9.0 | 0.00 | 0.00 | 0.00 | 39 | 993.8 |
| 20260831180026 | 96 | 325 | 1.0 | 8.0 | 0.00 | 0.00 | 0.00 | 41 | 994.0 |
| 20260831174524 | 96 | 75 | 4.0 | 9.0 | 0.00 | 0.00 | 0.00 | 42 | 994.4 |
| 20260831173022 | 96 | 226 | 2.0 | 8.0 | 0.00 | 0.00 | 0.00 | 43 | 994.6 |
| 20260831171520 | 95 | 103 | 4.0 | 8.0 | 0.00 | 0.00 | 0.00 | 42 | 994.6 |
| 20260831170017 | 94 | 240 | 3.0 | 7.0 | 0.00 | 0.00 | 0.00 | 44 | 994.8 |
| 20260831164522 | 93 | 199 | 2.0 | 7.0 | 0.00 | 0.00 | 0.00 | 44 | 994.8 |
| 20260831163010 | 92 | 277 | 2.0 | 7.0 | 0.00 | 0.00 | 0.00 | 45 | 994.8 |
| 20260831161510 | 91 | 242 | 3.0 | 9.0 | 0.00 | 0.00 | 0.00 | 46 | 995.0 |
| 20260831160005 | 90 | 212 | 1.0 | 8.0 | 0.00 | 0.00 | 0.00 | 48 | 995.0 |
| 20260831154503 | 90 | 168 | 1.0 | 8.0 | 0.00 | 0.00 | 0.00 | 50 | 994.9 |
| 20260831153059 | 89 | 359 | 2.0 | 7.0 | 0.00 | 0.00 | 0.00 | 51 | 994.9 |
| 20260831151556 | 88 | 219 | 2.0 | 6.0 | 0.00 | 0.00 | 0.00 | 53 | 994.9 |
| 20260831150103 | 88 | 229 | 1.0 | 8.0 | 0.00 | 0.00 | 0.00 | 56 | 994.7 |
| 20260831144558 | 86 | 302 | 1.0 | 7.0 | 0.00 | 0.00 | 0.00 | 58 | 994.5 |
| 20260831143049 | 86 | 176 | 3.0 | 7.0 | 0.00 | 0.00 | 0.00 | 60 | 994.6 |
| 20260831141548 | 85 | 163 | 2.0 | 7.0 | 0.00 | 0.00 | 0.00 | 62 | 994.7 |
| 20260831140043 | 84 | 108 | 3.0 | 6.0 | 0.00 | 0.00 | 0.00 | 64 | 994.9 |
| 20260831134541 | 83 | 94 | 2.0 | 5.0 | 0.00 | 0.00 | 0.00 | 67 | 994.6 |
| 20260831133037 | 82 | 219 | 2.0 | 4.0 | 0.00 | 0.00 | 0.00 | 68 | 994.3 |
| 20260831131534 | 82 | 113 | 0.0 | 4.0 | 0.00 | 0.00 | 0.00 | 69 | 994.1 |
| 20260831130031 | 81 | 109 | 1.0 | 4.0 | 0.00 | 0.00 | 0.00 | 70 | 994.0 |
| 20260831124529 | 81 | 188 | 0.0 | 2.0 | 0.00 | 0.00 | 0.00 | 69 | 993.5 |
| 20260831123026 | 81 | 213 | 0.0 | 3.0 | 0.00 | 0.00 | 0.00 | 69 | 993.3 |
| 20260831121524 | 81 | 138 | 0.0 | 1.0 | 0.00 | 0.00 | 0.00 | 68 | 993.2 |
| 20260831120035 | 82 | 139 | 0.0 | 1.0 | 0.00 | 0.00 | 0.00 | 67 | 993.0 |
| 20260831114524 | 82 | 139 | 0.0 | 2.0 | 0.00 | 0.00 | 0.00 | 66 | 992.9 |
| 20260831113019 | 82 | 139 | 0.0 | 2.0 | 0.00 | 0.00 | 0.00 | 66 | 992.8 |
| 20260831111514 | 82 | 139 | 0.0 | 1.0 | 0.00 | 0.00 | 0.00 | 65 | 992.6 |
| 20260831110010 | 83 | 139 | 0.0 | 3.0 | 0.00 | 0.00 | 0.00 | 65 | 992.5 |
| 20260831104510 | 83 | 194 | 0.0 | 3.0 | 0.00 | 0.00 | 0.00 | 64 | 992.3 |
| 20260831103008 | 83 | 209 | 2.0 | 5.0 | 0.00 | 0.00 | 0.00 | 63 | 992.4 |
| 20260831101504 | 83 | 153 | 0.0 | 1.0 | 0.00 | 0.00 | 0.00 | 62 | 992.3 |
| 20260831100000 | 84 | 156 | 0.0 | 2.0 | 0.00 | 0.00 | 0.00 | 61 | 992.4 |
| 20260831094604 | 84 | 131 | 0.0 | 5.0 | 0.00 | 0.00 | 0.00 | 61 | 992.2 |
| 20260831093057 | 84 | 220 | 1.0 | 4.0 | 0.00 | 0.00 | 0.00 | 60 | 992.2 |
| 20260831091601 | 85 | 182 | 1.0 | 6.0 | 0.00 | 0.00 | 0.00 | 59 | 992.0 |
| 20260831090053 | 85 | 221 | 2.0 | 5.0 | 0.00 | 0.00 | 0.00 | 58 | 992.0 |
| 20260831084551 | 85 | 236 | 1.0 | 8.0 | 0.00 | 0.00 | 0.00 | 57 | 991.9 |
| 20260831083050 | 85 | 197 | 1.0 | 8.0 | 0.00 | 0.00 | 0.00 | 56 | 992.0 |
| 20260831081550 | 86 | 186 | 2.0 | 6.0 | 0.00 | 0.00 | 0.00 | 55 | 992.0 |
| 20260831080100 | 86 | 230 | 3.0 | 10.0 | 0.00 | 0.00 | 0.00 | 54 | 992.0 |
| 20260831074542 | 87 | 198 | 3.0 | 8.0 | 0.00 | 0.00 | 0.00 | 53 | 991.8 |
| 20260831073102 | 87 | 226 | 3.0 | 5.0 | 0.00 | 0.00 | 0.00 | 51 | 991.8 |
| 20260831071550 | 87 | 205 | 1.0 | 6.0 | 0.00 | 0.00 | 0.00 | 50 | 991.7 |
| 20260831070039 | 87 | 237 | 1.0 | 4.0 | 0.00 | 0.00 | 0.00 | 50 | 991.6 |
| 20260831064541 | 87 | 205 | 0.0 | 3.0 | 0.00 | 0.00 | 0.00 | 51 | 991.8 |
| 20260831063042 | 87 | 205 | 0.0 | 1.0 | 0.00 | 0.00 | 0.00 | 50 | 991.8 |
| 20260831061533 | 88 | 205 | 0.0 | 1.0 | 0.00 | 0.00 | 0.00 | 51 | 991.7 |
| 20260831060030 | 88 | 205 | 0.0 | 2.0 | 0.00 | 0.00 | 0.00 | 49 | 991.8 |
| 20260831054528 | 89 | 200 | 0.0 | 2.0 | 0.00 | 0.00 | 0.00 | 49 | 992.0 |
| 20260831053025 | 89 | 116 | 0.0 | 2.0 | 0.00 | 0.00 | 0.00 | 47 | 991.8 |
| 20260831051526 | 90 | 140 | 0.0 | 1.0 | 0.00 | 0.00 | 0.00 | 47 | 991.7 |
| 20260831050020 | 90 | 135 | 0.0 | 2.0 | 0.00 | 0.00 | 0.00 | 46 | 991.6 |
| 20260831044520 | 90 | 131 | 0.0 | 3.0 | 0.00 | 0.00 | 0.00 | 45 | 991.5 |
| 20260831043019 | 91 | 105 | 0.0 | 2.0 | 0.00 | 0.00 | 0.00 | 45 | 991.6 |
| 20260831041519 | 91 | 103 | 0.0 | 2.0 | 0.00 | 0.00 | 0.00 | 45 | 991.4 |
| 20260831040018 | 91 | 181 | 0.0 | 2.0 | 0.00 | 0.00 | 0.00 | 44 | 991.4 |
| 20260831034527 | 92 | 139 | 0.0 | 2.0 | 0.00 | 0.00 | 0.00 | 43 | 991.5 |
| 20260831033032 | 92 | 139 | 0.0 | 2.0 | 0.00 | 0.00 | 0.00 | 43 | 991.3 |
| 20260831031518 | 92 | 99 | 1.0 | 4.0 | 0.00 | 0.00 | 0.00 | 42 | 991.2 |
| 20260831030016 | 93 | 94 | 1.0 | 3.0 | 0.00 | 0.00 | 0.00 | 42 | 991.2 |
| 20260831024516 | 93 | 136 | 1.0 | 5.0 | 0.00 | 0.00 | 0.00 | 41 | 991.0 |
| 20260831023015 | 93 | 114 | 1.0 | 3.0 | 0.00 | 0.00 | 0.00 | 41 | 990.8 |
| 20260831021529 | 94 | 101 | 1.0 | 3.0 | 0.00 | 0.00 | 0.00 | 40 | 990.6 |
| 20260831020015 | 94 | 137 | 1.0 | 4.0 | 0.00 | 0.00 | 0.00 | 39 | 990.2 |
| 20260831014514 | 95 | 139 | 2.0 | 5.0 | 0.00 | 0.00 | 0.00 | 38 | 990.0 |
| 20260831013015 | 95 | 96 | 2.0 | 4.0 | 0.00 | 0.00 | 0.00 | 37 | 989.9 |
| 20260831011531 | 96 | 89 | 0.0 | 4.0 | 0.00 | 0.00 | 0.00 | 35 | 989.8 |
| 20260831010011 | 96 | 109 | 1.0 | 3.0 | 0.00 | 0.00 | 0.00 | 34 | 989.8 |
| 20260831004511 | 97 | 83 | 0.0 | 7.0 | 0.00 | 0.00 | 0.00 | 33 | 989.7 |
| 20260831003015 | 97 | 95 | 1.0 | 7.0 | 0.00 | 0.00 | 0.00 | 32 | 989.6 |
| 20260831001515 | 98 | 214 | 2.0 | 5.0 | 0.00 | 0.00 | 0.00 | 32 | 989.7 |
| 20260831000008 | 98 | 220 | 3.0 | 8.0 | 0.00 | 0.00 | 0.00 | 32 | 989.8 |
| 20260830234518 | 99 | 110 | 3.0 | 6.0 | 0.00 | 0.00 | 0.00 | 31 | 989.8 |
| 20260830233009 | 99 | 134 | 5.0 | 9.0 | 0.00 | 0.00 | 0.00 | 31 | 989.8 |